owner,sensor,date,latitude,longitude,sea_surface_height_above_sea_level,qcFlag 
TCOON,ioos:station:TCOON:003:1,2017-10-01T00:18:00Z,26.8015,-97.4706,1.377,1111122 
TCOON,ioos:station:TCOON:003:1,2017-10-01T01:18:00Z,26.8015,-97.4706,1.377,1111122 
TCOON,ioos:station:TCOON:003:1,2017-10-01T02:18:00Z,26.8015,-97.4706,1.371,1111122 
TCOON,ioos:station:TCOON:003:1,2017-10-01T03:18:00Z,26.8015,-97.4706,1.367,1111122 
TCOON,ioos:station:TCOON:003:1,2017-10-01T04:18:00Z,26.8015,-97.4706,1.371,1111122 
TCOON,ioos:station:TCOON:003:1,2017-10-01T05:18:00Z,26.8015,-97.4706,1.374,1111122 
TCOON,ioos:station:TCOON:003:1,2017-10-01T06:18:00Z,26.8015,-97.4706,1.375,1111122 
TCOON,ioos:station:TCOON:003:1,2017-10-01T07:18:00Z,26.8015,-97.4706,1.376,1111122 
TCOON,ioos:station:TCOON:003:1,2017-10-01T08:18:00Z,26.8015,-97.4706,1.38,1111122 
TCOON,ioos:station:TCOON:003:1,2017-10-01T09:18:00Z,26.8015,-97.4706,1.384,1111122 
TCOON,ioos:station:TCOON:003:1,2017-10-01T10:18:00Z,26.8015,-97.4706,1.389,1111122 
TCOON,ioos:station:TCOON:003:1,2017-10-01T11:18:00Z,26.8015,-97.4706,1.389,1111122 
TCOON,ioos:station:TCOON:003:1,2017-10-01T12:18:00Z,26.8015,-97.4706,1.389,1111122 
TCOON,ioos:station:TCOON:003:1,2017-10-01T13:18:00Z,26.8015,-97.4706,1.39,1111122 
TCOON,ioos:station:TCOON:003:1,2017-10-01T14:18:00Z,26.8015,-97.4706,1.412,1111122 
TCOON,ioos:station:TCOON:003:1,2017-10-01T15:18:00Z,26.8015,-97.4706,1.426,1111122 
TCOON,ioos:station:TCOON:003:1,2017-10-01T16:18:00Z,26.8015,-97.4706,1.418,1111122 
TCOON,ioos:station:TCOON:003:1,2017-10-01T17:18:00Z,26.8015,-97.4706,1.424,1111122 
TCOON,ioos:station:TCOON:003:1,2017-10-01T18:18:00Z,26.8015,-97.4706,1.43,1111122 
TCOON,ioos:station:TCOON:003:1,2017-10-01T19:18:00Z,26.8015,-97.4706,1.44,1111122 
TCOON,ioos:station:TCOON:003:1,2017-10-01T20:18:00Z,26.8015,-97.4706,1.445,1111122 
TCOON,ioos:station:TCOON:003:1,2017-10-01T21:18:00Z,26.8015,-97.4706,1.432,1111122 
TCOON,ioos:station:TCOON:003:1,2017-10-01T22:18:00Z,26.8015,-97.4706,1.425,1111122 
TCOON,ioos:station:TCOON:003:1,2017-10-01T23:18:00Z,26.8015,-97.4706,1.426,1111122 
TCOON,ioos:station:TCOON:003:1,2017-10-02T00:18:00Z,26.8015,-97.4706,1.426,1111122 
TCOON,ioos:station:TCOON:003:1,2017-10-02T01:18:00Z,26.8015,-97.4706,1.426,1111122 
TCOON,ioos:station:TCOON:003:1,2017-10-02T02:18:00Z,26.8015,-97.4706,1.418,1111122 
TCOON,ioos:station:TCOON:003:1,2017-10-02T03:18:00Z,26.8015,-97.4706,1.415,1111122 
TCOON,ioos:station:TCOON:003:1,2017-10-02T04:18:00Z,26.8015,-97.4706,1.412,1111122 
TCOON,ioos:station:TCOON:003:1,2017-10-02T05:18:00Z,26.8015,-97.4706,1.413,1111122 
TCOON,ioos:station:TCOON:003:1,2017-10-02T06:48:00Z,26.8015,-97.4706,1.418,1111122 
TCOON,ioos:station:TCOON:003:1,2017-10-02T07:18:00Z,26.8015,-97.4706,1.421,1111122 
TCOON,ioos:station:TCOON:003:1,2017-10-02T08:18:00Z,26.8015,-97.4706,1.426,1111122 
TCOON,ioos:station:TCOON:003:1,2017-10-02T09:18:00Z,26.8015,-97.4706,1.43,1111122 
TCOON,ioos:station:TCOON:003:1,2017-10-02T10:18:00Z,26.8015,-97.4706,1.433,1111122 
TCOON,ioos:station:TCOON:003:1,2017-10-02T11:18:00Z,26.8015,-97.4706,1.44,1111122 
TCOON,ioos:station:TCOON:003:1,2017-10-02T12:18:00Z,26.8015,-97.4706,1.437,1111122 
TCOON,ioos:station:TCOON:003:1,2017-10-02T13:18:00Z,26.8015,-97.4706,1.434,1111122 
TCOON,ioos:station:TCOON:003:1,2017-10-02T14:18:00Z,26.8015,-97.4706,1.431,1111122 
TCOON,ioos:station:TCOON:003:1,2017-10-02T15:18:00Z,26.8015,-97.4706,1.419,1111122 
TCOON,ioos:station:TCOON:003:1,2017-10-02T16:18:00Z,26.8015,-97.4706,1.421,1111122 
TCOON,ioos:station:TCOON:003:1,2017-10-02T17:18:00Z,26.8015,-97.4706,1.452,1111122 
TCOON,ioos:station:TCOON:003:1,2017-10-02T18:18:00Z,26.8015,-97.4706,1.47,1111122 
TCOON,ioos:station:TCOON:003:1,2017-10-02T19:18:00Z,26.8015,-97.4706,1.476,1111122 
TCOON,ioos:station:TCOON:003:1,2017-10-02T20:18:00Z,26.8015,-97.4706,1.487,1111122 
TCOON,ioos:station:TCOON:003:1,2017-10-02T21:18:00Z,26.8015,-97.4706,1.493,1111122 
TCOON,ioos:station:TCOON:003:1,2017-10-02T22:18:00Z,26.8015,-97.4706,1.491,1111122 
TCOON,ioos:station:TCOON:003:1,2017-10-02T23:18:00Z,26.8015,-97.4706,1.487,1111122 
TCOON,ioos:station:TCOON:003:1,2017-10-03T00:18:00Z,26.8015,-97.4706,1.483,1111122 
TCOON,ioos:station:TCOON:003:1,2017-10-03T01:18:00Z,26.8015,-97.4706,1.479,1111122 
TCOON,ioos:station:TCOON:003:1,2017-10-03T02:18:00Z,26.8015,-97.4706,1.47,1111122 
TCOON,ioos:station:TCOON:003:1,2017-10-03T03:18:00Z,26.8015,-97.4706,1.47,1111122 
TCOON,ioos:station:TCOON:003:1,2017-10-03T04:18:00Z,26.8015,-97.4706,1.469,1111122 
TCOON,ioos:station:TCOON:003:1,2017-10-03T05:18:00Z,26.8015,-97.4706,1.463,1111122 
TCOON,ioos:station:TCOON:003:1,2017-10-03T06:18:00Z,26.8015,-97.4706,1.457,1111122 
TCOON,ioos:station:TCOON:003:1,2017-10-03T07:18:00Z,26.8015,-97.4706,1.457,1111122 
TCOON,ioos:station:TCOON:003:1,2017-10-03T08:18:00Z,26.8015,-97.4706,1.469,1111122 
TCOON,ioos:station:TCOON:003:1,2017-10-03T09:18:00Z,26.8015,-97.4706,1.466,1111122 
TCOON,ioos:station:TCOON:003:1,2017-10-03T11:30:00Z,26.8015,-97.4706,1.489,1111122 
TCOON,ioos:station:TCOON:003:1,2017-10-03T12:18:00Z,26.8015,-97.4706,1.484,1111122 
TCOON,ioos:station:TCOON:003:1,2017-10-03T13:18:00Z,26.8015,-97.4706,1.479,1111122 
TCOON,ioos:station:TCOON:003:1,2017-10-03T14:18:00Z,26.8015,-97.4706,1.48,1111122 
TCOON,ioos:station:TCOON:003:1,2017-10-03T15:18:00Z,26.8015,-97.4706,1.475,1111122 
TCOON,ioos:station:TCOON:003:1,2017-10-03T16:18:00Z,26.8015,-97.4706,1.48,1111122 
TCOON,ioos:station:TCOON:003:1,2017-10-03T17:18:00Z,26.8015,-97.4706,1.49,1111122 
TCOON,ioos:station:TCOON:003:1,2017-10-03T18:18:00Z,26.8015,-97.4706,1.503,1111122 
TCOON,ioos:station:TCOON:003:1,2017-10-03T19:18:00Z,26.8015,-97.4706,1.51,1111122 
TCOON,ioos:station:TCOON:003:1,2017-10-03T20:18:00Z,26.8015,-97.4706,1.524,1111122 
TCOON,ioos:station:TCOON:003:1,2017-10-03T21:18:00Z,26.8015,-97.4706,1.587,1111122 
TCOON,ioos:station:TCOON:003:1,2017-10-03T22:18:00Z,26.8015,-97.4706,1.539,1111122 
TCOON,ioos:station:TCOON:003:1,2017-10-03T23:18:00Z,26.8015,-97.4706,1.517,1111122 
TCOON,ioos:station:TCOON:003:1,2017-10-04T00:18:00Z,26.8015,-97.4706,1.523,1111122 
TCOON,ioos:station:TCOON:003:1,2017-10-04T01:18:00Z,26.8015,-97.4706,1.537,1111122 
TCOON,ioos:station:TCOON:003:1,2017-10-04T02:18:00Z,26.8015,-97.4706,1.532,1111122 
TCOON,ioos:station:TCOON:003:1,2017-10-04T03:18:00Z,26.8015,-97.4706,1.53,1111122 
TCOON,ioos:station:TCOON:003:1,2017-10-04T04:18:00Z,26.8015,-97.4706,1.531,1111122 
TCOON,ioos:station:TCOON:003:1,2017-10-04T05:18:00Z,26.8015,-97.4706,1.538,1111122 
TCOON,ioos:station:TCOON:003:1,2017-10-04T06:18:00Z,26.8015,-97.4706,1.54,1111122 
TCOON,ioos:station:TCOON:003:1,2017-10-04T07:18:00Z,26.8015,-97.4706,1.541,1111122 
TCOON,ioos:station:TCOON:003:1,2017-10-04T08:18:00Z,26.8015,-97.4706,1.552,1111122 
TCOON,ioos:station:TCOON:003:1,2017-10-04T09:18:00Z,26.8015,-97.4706,1.556,1111122 
TCOON,ioos:station:TCOON:003:1,2017-10-04T11:12:00Z,26.8015,-97.4706,1.583,1111122 
TCOON,ioos:station:TCOON:003:1,2017-10-04T12:18:00Z,26.8015,-97.4706,1.574,1111122 
TCOON,ioos:station:TCOON:003:1,2017-10-04T13:18:00Z,26.8015,-97.4706,1.589,1111122 
TCOON,ioos:station:TCOON:003:1,2017-10-04T14:18:00Z,26.8015,-97.4706,1.589,1111122 
TCOON,ioos:station:TCOON:003:1,2017-10-04T15:18:00Z,26.8015,-97.4706,1.585,1111122 
TCOON,ioos:station:TCOON:003:1,2017-10-04T16:18:00Z,26.8015,-97.4706,1.581,1111122 
TCOON,ioos:station:TCOON:003:1,2017-10-04T17:18:00Z,26.8015,-97.4706,1.578,1111122 
TCOON,ioos:station:TCOON:003:1,2017-10-04T18:18:00Z,26.8015,-97.4706,1.576,1111122 
TCOON,ioos:station:TCOON:003:1,2017-10-04T19:18:00Z,26.8015,-97.4706,1.574,1111122 
TCOON,ioos:station:TCOON:003:1,2017-10-04T20:18:00Z,26.8015,-97.4706,1.578,1111122 
TCOON,ioos:station:TCOON:003:1,2017-10-04T21:18:00Z,26.8015,-97.4706,1.575,1111122 
TCOON,ioos:station:TCOON:003:1,2017-10-04T22:18:00Z,26.8015,-97.4706,1.574,1111122 
TCOON,ioos:station:TCOON:003:1,2017-10-04T23:18:00Z,26.8015,-97.4706,1.573,1111122 
TCOON,ioos:station:TCOON:003:1,2017-10-05T00:18:00Z,26.8015,-97.4706,1.572,1111122 
TCOON,ioos:station:TCOON:003:1,2017-10-05T01:18:00Z,26.8015,-97.4706,1.562,1111122 
TCOON,ioos:station:TCOON:003:1,2017-10-05T02:18:00Z,26.8015,-97.4706,1.578,1111122 
TCOON,ioos:station:TCOON:003:1,2017-10-05T03:18:00Z,26.8015,-97.4706,1.582,1111122 
TCOON,ioos:station:TCOON:003:1,2017-10-05T04:18:00Z,26.8015,-97.4706,1.584,1111122 
TCOON,ioos:station:TCOON:003:1,2017-10-05T05:18:00Z,26.8015,-97.4706,1.587,1111122 
TCOON,ioos:station:TCOON:003:1,2017-10-05T06:18:00Z,26.8015,-97.4706,1.589,1111122 
TCOON,ioos:station:TCOON:003:1,2017-10-05T07:18:00Z,26.8015,-97.4706,1.608,1111122 
TCOON,ioos:station:TCOON:003:1,2017-10-05T08:18:00Z,26.8015,-97.4706,1.593,1111122 
TCOON,ioos:station:TCOON:003:1,2017-10-05T09:18:00Z,26.8015,-97.4706,1.642,1111122 
TCOON,ioos:station:TCOON:003:1,2017-10-05T10:18:00Z,26.8015,-97.4706,1.643,1111122 
TCOON,ioos:station:TCOON:003:1,2017-10-05T11:18:00Z,26.8015,-97.4706,1.648,1111122 
TCOON,ioos:station:TCOON:003:1,2017-10-05T12:18:00Z,26.8015,-97.4706,1.655,1111122 
TCOON,ioos:station:TCOON:003:1,2017-10-05T13:18:00Z,26.8015,-97.4706,1.642,1111122 
TCOON,ioos:station:TCOON:003:1,2017-10-05T14:18:00Z,26.8015,-97.4706,1.655,1111122 
TCOON,ioos:station:TCOON:003:1,2017-10-05T15:18:00Z,26.8015,-97.4706,1.663,1111122 
TCOON,ioos:station:TCOON:003:1,2017-10-05T16:18:00Z,26.8015,-97.4706,1.666,1111122 
TCOON,ioos:station:TCOON:003:1,2017-10-05T17:30:00Z,26.8015,-97.4706,1.666,1111122 
TCOON,ioos:station:TCOON:003:1,2017-10-05T18:24:00Z,26.8015,-97.4706,1.67,1111122 
TCOON,ioos:station:TCOON:003:1,2017-10-05T19:30:00Z,26.8015,-97.4706,1.661,1111122 
TCOON,ioos:station:TCOON:003:1,2017-10-05T20:18:00Z,26.8015,-97.4706,1.667,1111122 
TCOON,ioos:station:TCOON:003:1,2017-10-05T21:18:00Z,26.8015,-97.4706,1.667,1111122 
TCOON,ioos:station:TCOON:003:1,2017-10-05T22:18:00Z,26.8015,-97.4706,1.666,1111122 
TCOON,ioos:station:TCOON:003:1,2017-10-05T23:18:00Z,26.8015,-97.4706,1.66,1111122 
TCOON,ioos:station:TCOON:003:1,2017-10-06T00:18:00Z,26.8015,-97.4706,1.65,1111122 
TCOON,ioos:station:TCOON:003:1,2017-10-06T01:18:00Z,26.8015,-97.4706,1.647,1111122 
TCOON,ioos:station:TCOON:003:1,2017-10-06T02:18:00Z,26.8015,-97.4706,1.651,1111122 
TCOON,ioos:station:TCOON:003:1,2017-10-06T03:18:00Z,26.8015,-97.4706,1.654,1111122 
TCOON,ioos:station:TCOON:003:1,2017-10-06T04:18:00Z,26.8015,-97.4706,1.657,1111122 
TCOON,ioos:station:TCOON:003:1,2017-10-06T05:18:00Z,26.8015,-97.4706,1.661,1111122 
TCOON,ioos:station:TCOON:003:1,2017-10-06T06:18:00Z,26.8015,-97.4706,1.667,1111122 
TCOON,ioos:station:TCOON:003:1,2017-10-06T07:18:00Z,26.8015,-97.4706,1.671,1111122 
TCOON,ioos:station:TCOON:003:1,2017-10-06T08:18:00Z,26.8015,-97.4706,1.675,1111122 
TCOON,ioos:station:TCOON:003:1,2017-10-06T09:18:00Z,26.8015,-97.4706,1.679,1111122 
TCOON,ioos:station:TCOON:003:1,2017-10-06T10:18:00Z,26.8015,-97.4706,1.675,1111122 
TCOON,ioos:station:TCOON:003:1,2017-10-06T11:18:00Z,26.8015,-97.4706,1.669,1111122 
TCOON,ioos:station:TCOON:003:1,2017-10-06T12:18:00Z,26.8015,-97.4706,1.655,1111122 
TCOON,ioos:station:TCOON:003:1,2017-10-06T13:18:00Z,26.8015,-97.4706,1.647,1111122 
TCOON,ioos:station:TCOON:003:1,2017-10-06T14:18:00Z,26.8015,-97.4706,1.643,1111122 
TCOON,ioos:station:TCOON:003:1,2017-10-06T15:18:00Z,26.8015,-97.4706,1.643,1111122 
TCOON,ioos:station:TCOON:003:1,2017-10-06T16:18:00Z,26.8015,-97.4706,1.659,1111122 
TCOON,ioos:station:TCOON:003:1,2017-10-06T17:18:00Z,26.8015,-97.4706,1.644,1111122 
TCOON,ioos:station:TCOON:003:1,2017-10-06T18:18:00Z,26.8015,-97.4706,1.649,1111122 
TCOON,ioos:station:TCOON:003:1,2017-10-06T19:18:00Z,26.8015,-97.4706,1.657,1111122 
TCOON,ioos:station:TCOON:003:1,2017-10-06T20:18:00Z,26.8015,-97.4706,1.66,1111122 
TCOON,ioos:station:TCOON:003:1,2017-10-06T21:18:00Z,26.8015,-97.4706,1.667,1111122 
TCOON,ioos:station:TCOON:003:1,2017-10-06T22:18:00Z,26.8015,-97.4706,1.674,1111122 
TCOON,ioos:station:TCOON:003:1,2017-10-06T23:18:00Z,26.8015,-97.4706,1.682,1111122 
TCOON,ioos:station:TCOON:003:1,2017-10-07T00:18:00Z,26.8015,-97.4706,1.683,1111122 
TCOON,ioos:station:TCOON:003:1,2017-10-07T01:18:00Z,26.8015,-97.4706,1.681,1111122 
TCOON,ioos:station:TCOON:003:1,2017-10-07T02:18:00Z,26.8015,-97.4706,1.679,1111122 
TCOON,ioos:station:TCOON:003:1,2017-10-07T03:18:00Z,26.8015,-97.4706,1.675,1111122 
TCOON,ioos:station:TCOON:003:1,2017-10-07T04:18:00Z,26.8015,-97.4706,1.671,1111122 
TCOON,ioos:station:TCOON:003:1,2017-10-07T05:18:00Z,26.8015,-97.4706,1.669,1111122 
TCOON,ioos:station:TCOON:003:1,2017-10-07T06:18:00Z,26.8015,-97.4706,1.668,1111122 
TCOON,ioos:station:TCOON:003:1,2017-10-07T07:18:00Z,26.8015,-97.4706,1.666,1111122 
TCOON,ioos:station:TCOON:003:1,2017-10-07T08:18:00Z,26.8015,-97.4706,1.667,1111122 
TCOON,ioos:station:TCOON:003:1,2017-10-07T09:18:00Z,26.8015,-97.4706,1.666,1111122 
TCOON,ioos:station:TCOON:003:1,2017-10-07T10:18:00Z,26.8015,-97.4706,1.663,1111122 
TCOON,ioos:station:TCOON:003:1,2017-10-07T11:18:00Z,26.8015,-97.4706,1.661,1111122 
TCOON,ioos:station:TCOON:003:1,2017-10-07T12:18:00Z,26.8015,-97.4706,1.656,1111122 
TCOON,ioos:station:TCOON:003:1,2017-10-07T13:18:00Z,26.8015,-97.4706,1.649,1111122 
TCOON,ioos:station:TCOON:003:1,2017-10-07T14:18:00Z,26.8015,-97.4706,1.633,1111122 
TCOON,ioos:station:TCOON:003:1,2017-10-07T15:18:00Z,26.8015,-97.4706,1.621,1111122 
TCOON,ioos:station:TCOON:003:1,2017-10-07T16:18:00Z,26.8015,-97.4706,1.609,1111122 
TCOON,ioos:station:TCOON:003:1,2017-10-07T17:18:00Z,26.8015,-97.4706,1.613,1111122 
TCOON,ioos:station:TCOON:003:1,2017-10-07T18:18:00Z,26.8015,-97.4706,1.614,1111122 
TCOON,ioos:station:TCOON:003:1,2017-10-07T19:18:00Z,26.8015,-97.4706,1.61,1111122 
TCOON,ioos:station:TCOON:003:1,2017-10-07T20:18:00Z,26.8015,-97.4706,1.627,1111122 
TCOON,ioos:station:TCOON:003:1,2017-10-07T21:18:00Z,26.8015,-97.4706,1.63,1111122 
TCOON,ioos:station:TCOON:003:1,2017-10-07T22:18:00Z,26.8015,-97.4706,1.639,1111122 
TCOON,ioos:station:TCOON:003:1,2017-10-07T23:18:00Z,26.8015,-97.4706,1.649,1111122 
TCOON,ioos:station:TCOON:003:1,2017-10-08T00:18:00Z,26.8015,-97.4706,1.65,1111122 
TCOON,ioos:station:TCOON:003:1,2017-10-08T01:18:00Z,26.8015,-97.4706,1.65,1111122 
TCOON,ioos:station:TCOON:003:1,2017-10-08T02:18:00Z,26.8015,-97.4706,1.654,1111122 
TCOON,ioos:station:TCOON:003:1,2017-10-08T03:18:00Z,26.8015,-97.4706,1.66,1111122 
TCOON,ioos:station:TCOON:003:1,2017-10-08T04:18:00Z,26.8015,-97.4706,1.665,1111122 
TCOON,ioos:station:TCOON:003:1,2017-10-08T05:18:00Z,26.8015,-97.4706,1.668,1111122 
TCOON,ioos:station:TCOON:003:1,2017-10-08T06:18:00Z,26.8015,-97.4706,1.672,1111122 
TCOON,ioos:station:TCOON:003:1,2017-10-08T07:18:00Z,26.8015,-97.4706,1.678,1111122 
TCOON,ioos:station:TCOON:003:1,2017-10-08T08:18:00Z,26.8015,-97.4706,1.68,1111122 
TCOON,ioos:station:TCOON:003:1,2017-10-08T09:18:00Z,26.8015,-97.4706,1.682,1111122 
TCOON,ioos:station:TCOON:003:1,2017-10-08T10:18:00Z,26.8015,-97.4706,1.683,1111122 
TCOON,ioos:station:TCOON:003:1,2017-10-08T11:18:00Z,26.8015,-97.4706,1.678,1111122 
TCOON,ioos:station:TCOON:003:1,2017-10-08T12:18:00Z,26.8015,-97.4706,1.676,1111122 
TCOON,ioos:station:TCOON:003:1,2017-10-08T13:18:00Z,26.8015,-97.4706,1.679,1111122 
TCOON,ioos:station:TCOON:003:1,2017-10-08T14:18:00Z,26.8015,-97.4706,1.692,1111122 
TCOON,ioos:station:TCOON:003:1,2017-10-08T15:18:00Z,26.8015,-97.4706,1.698,1111122 
TCOON,ioos:station:TCOON:003:1,2017-10-08T16:18:00Z,26.8015,-97.4706,1.692,1111122 
TCOON,ioos:station:TCOON:003:1,2017-10-08T17:18:00Z,26.8015,-97.4706,1.699,1111122 
TCOON,ioos:station:TCOON:003:1,2017-10-08T18:18:00Z,26.8015,-97.4706,1.702,1111122 
TCOON,ioos:station:TCOON:003:1,2017-10-08T19:18:00Z,26.8015,-97.4706,1.7,1111122 
TCOON,ioos:station:TCOON:003:1,2017-10-08T20:18:00Z,26.8015,-97.4706,1.708,1111122 
TCOON,ioos:station:TCOON:003:1,2017-10-08T21:18:00Z,26.8015,-97.4706,1.72,1111122 
TCOON,ioos:station:TCOON:003:1,2017-10-08T22:18:00Z,26.8015,-97.4706,1.728,1111122 
TCOON,ioos:station:TCOON:003:1,2017-10-08T23:18:00Z,26.8015,-97.4706,1.744,1111122 
TCOON,ioos:station:TCOON:003:1,2017-10-09T00:18:00Z,26.8015,-97.4706,1.763,1111122 
TCOON,ioos:station:TCOON:003:1,2017-10-09T01:18:00Z,26.8015,-97.4706,1.778,1111122 
TCOON,ioos:station:TCOON:003:1,2017-10-09T02:18:00Z,26.8015,-97.4706,1.789,1111122 
TCOON,ioos:station:TCOON:003:1,2017-10-09T03:18:00Z,26.8015,-97.4706,1.794,1111122 
TCOON,ioos:station:TCOON:003:1,2017-10-09T04:18:00Z,26.8015,-97.4706,1.797,1111122 
TCOON,ioos:station:TCOON:003:1,2017-10-09T05:18:00Z,26.8015,-97.4706,1.804,1111122 
TCOON,ioos:station:TCOON:003:1,2017-10-09T06:18:00Z,26.8015,-97.4706,1.808,1111122 
TCOON,ioos:station:TCOON:003:1,2017-10-09T07:18:00Z,26.8015,-97.4706,1.804,1111122 
TCOON,ioos:station:TCOON:003:1,2017-10-09T08:18:00Z,26.8015,-97.4706,1.792,1111122 
TCOON,ioos:station:TCOON:003:1,2017-10-09T10:18:00Z,26.8015,-97.4706,1.779,1111122 
TCOON,ioos:station:TCOON:003:1,2017-10-09T11:18:00Z,26.8015,-97.4706,1.782,1111122 
TCOON,ioos:station:TCOON:003:1,2017-10-09T12:18:00Z,26.8015,-97.4706,1.785,1111122 
TCOON,ioos:station:TCOON:003:1,2017-10-09T13:18:00Z,26.8015,-97.4706,1.793,1111122 
TCOON,ioos:station:TCOON:003:1,2017-10-09T14:18:00Z,26.8015,-97.4706,1.788,1111122 
TCOON,ioos:station:TCOON:003:1,2017-10-09T15:18:00Z,26.8015,-97.4706,1.782,1111122 
TCOON,ioos:station:TCOON:003:1,2017-10-09T16:18:00Z,26.8015,-97.4706,1.764,1111122 
TCOON,ioos:station:TCOON:003:1,2017-10-09T17:24:00Z,26.8015,-97.4706,1.76,1111122 
TCOON,ioos:station:TCOON:003:1,2017-10-09T18:18:00Z,26.8015,-97.4706,1.766,1111122 
TCOON,ioos:station:TCOON:003:1,2017-10-09T19:18:00Z,26.8015,-97.4706,1.77,1111122 
TCOON,ioos:station:TCOON:003:1,2017-10-09T20:18:00Z,26.8015,-97.4706,1.777,1111122 
TCOON,ioos:station:TCOON:003:1,2017-10-09T21:18:00Z,26.8015,-97.4706,1.78,1111122 
TCOON,ioos:station:TCOON:003:1,2017-10-09T22:18:00Z,26.8015,-97.4706,1.774,1111122 
TCOON,ioos:station:TCOON:003:1,2017-10-09T23:18:00Z,26.8015,-97.4706,1.776,1111122 
TCOON,ioos:station:TCOON:003:1,2017-10-10T00:18:00Z,26.8015,-97.4706,1.772,1111122 
TCOON,ioos:station:TCOON:003:1,2017-10-10T01:18:00Z,26.8015,-97.4706,1.769,1111122 
TCOON,ioos:station:TCOON:003:1,2017-10-10T02:18:00Z,26.8015,-97.4706,1.766,1111122 
TCOON,ioos:station:TCOON:003:1,2017-10-10T03:18:00Z,26.8015,-97.4706,1.768,1111122 
TCOON,ioos:station:TCOON:003:1,2017-10-10T04:18:00Z,26.8015,-97.4706,1.759,1111122 
TCOON,ioos:station:TCOON:003:1,2017-10-10T05:18:00Z,26.8015,-97.4706,1.75,1111122 
TCOON,ioos:station:TCOON:003:1,2017-10-10T06:18:00Z,26.8015,-97.4706,1.745,1111122 
TCOON,ioos:station:TCOON:003:1,2017-10-10T07:18:00Z,26.8015,-97.4706,1.739,1111122 
TCOON,ioos:station:TCOON:003:1,2017-10-10T08:18:00Z,26.8015,-97.4706,1.732,1111122 
TCOON,ioos:station:TCOON:003:1,2017-10-10T09:18:00Z,26.8015,-97.4706,1.725,1111122 
TCOON,ioos:station:TCOON:003:1,2017-10-10T10:18:00Z,26.8015,-97.4706,1.712,1111122 
TCOON,ioos:station:TCOON:003:1,2017-10-10T11:18:00Z,26.8015,-97.4706,1.71,1111122 
TCOON,ioos:station:TCOON:003:1,2017-10-10T12:18:00Z,26.8015,-97.4706,1.697,1111122 
TCOON,ioos:station:TCOON:003:1,2017-10-10T13:18:00Z,26.8015,-97.4706,1.69,1111122 
TCOON,ioos:station:TCOON:003:1,2017-10-10T14:18:00Z,26.8015,-97.4706,1.684,1111122 
TCOON,ioos:station:TCOON:003:1,2017-10-10T15:18:00Z,26.8015,-97.4706,1.682,1111122 
TCOON,ioos:station:TCOON:003:1,2017-10-10T16:18:00Z,26.8015,-97.4706,1.679,1111122 
TCOON,ioos:station:TCOON:003:1,2017-10-10T17:18:00Z,26.8015,-97.4706,1.671,1111122 
TCOON,ioos:station:TCOON:003:1,2017-10-10T18:18:00Z,26.8015,-97.4706,1.711,1111122 
TCOON,ioos:station:TCOON:003:1,2017-10-10T19:18:00Z,26.8015,-97.4706,1.649,1111122 
TCOON,ioos:station:TCOON:003:1,2017-10-10T20:18:00Z,26.8015,-97.4706,1.576,1111122 
TCOON,ioos:station:TCOON:003:1,2017-10-10T21:18:00Z,26.8015,-97.4706,1.529,1111122 
TCOON,ioos:station:TCOON:003:1,2017-10-10T22:18:00Z,26.8015,-97.4706,1.504,1111122 
TCOON,ioos:station:TCOON:003:1,2017-10-10T23:18:00Z,26.8015,-97.4706,1.486,1111122 
TCOON,ioos:station:TCOON:003:1,2017-10-11T00:18:00Z,26.8015,-97.4706,1.482,1111122 
TCOON,ioos:station:TCOON:003:1,2017-10-11T01:18:00Z,26.8015,-97.4706,1.497,1111122 
TCOON,ioos:station:TCOON:003:1,2017-10-11T02:18:00Z,26.8015,-97.4706,1.514,1111122 
TCOON,ioos:station:TCOON:003:1,2017-10-11T03:18:00Z,26.8015,-97.4706,1.515,1111122 
TCOON,ioos:station:TCOON:003:1,2017-10-11T04:18:00Z,26.8015,-97.4706,1.505,1111122 
TCOON,ioos:station:TCOON:003:1,2017-10-11T05:18:00Z,26.8015,-97.4706,1.494,1111122 
TCOON,ioos:station:TCOON:003:1,2017-10-11T06:18:00Z,26.8015,-97.4706,1.493,1111122 
TCOON,ioos:station:TCOON:003:1,2017-10-11T07:18:00Z,26.8015,-97.4706,1.499,1111122 
TCOON,ioos:station:TCOON:003:1,2017-10-11T08:18:00Z,26.8015,-97.4706,1.496,1111122 
TCOON,ioos:station:TCOON:003:1,2017-10-11T09:18:00Z,26.8015,-97.4706,1.49,1111122 
TCOON,ioos:station:TCOON:003:1,2017-10-11T10:18:00Z,26.8015,-97.4706,1.489,1111122 
TCOON,ioos:station:TCOON:003:1,2017-10-11T11:18:00Z,26.8015,-97.4706,1.462,1111122 
TCOON,ioos:station:TCOON:003:1,2017-10-11T12:18:00Z,26.8015,-97.4706,1.444,1111122 
TCOON,ioos:station:TCOON:003:1,2017-10-11T13:18:00Z,26.8015,-97.4706,1.434,1111122 
TCOON,ioos:station:TCOON:003:1,2017-10-11T14:18:00Z,26.8015,-97.4706,1.423,1111122 
TCOON,ioos:station:TCOON:003:1,2017-10-11T15:18:00Z,26.8015,-97.4706,1.405,1111122 
TCOON,ioos:station:TCOON:003:1,2017-10-11T16:18:00Z,26.8015,-97.4706,1.39,1111122 
TCOON,ioos:station:TCOON:003:1,2017-10-11T17:18:00Z,26.8015,-97.4706,1.379,1111122 
TCOON,ioos:station:TCOON:003:1,2017-10-11T18:18:00Z,26.8015,-97.4706,1.372,1111122 
TCOON,ioos:station:TCOON:003:1,2017-10-11T19:18:00Z,26.8015,-97.4706,1.366,1111122 
TCOON,ioos:station:TCOON:003:1,2017-10-11T20:18:00Z,26.8015,-97.4706,1.357,1111122 
TCOON,ioos:station:TCOON:003:1,2017-10-11T21:18:00Z,26.8015,-97.4706,1.368,1111122 
TCOON,ioos:station:TCOON:003:1,2017-10-11T22:18:00Z,26.8015,-97.4706,1.411,1111122 
TCOON,ioos:station:TCOON:003:1,2017-10-11T23:18:00Z,26.8015,-97.4706,1.43,1111122 
TCOON,ioos:station:TCOON:003:1,2017-10-12T00:18:00Z,26.8015,-97.4706,1.422,1111122 
TCOON,ioos:station:TCOON:003:1,2017-10-12T01:18:00Z,26.8015,-97.4706,1.411,1111122 
TCOON,ioos:station:TCOON:003:1,2017-10-12T02:18:00Z,26.8015,-97.4706,1.408,1111122 
TCOON,ioos:station:TCOON:003:1,2017-10-12T03:18:00Z,26.8015,-97.4706,1.398,1111122 
TCOON,ioos:station:TCOON:003:1,2017-10-12T04:24:00Z,26.8015,-97.4706,1.425,1111122 
TCOON,ioos:station:TCOON:003:1,2017-10-12T05:18:00Z,26.8015,-97.4706,1.445,1111122 
TCOON,ioos:station:TCOON:003:1,2017-10-12T06:18:00Z,26.8015,-97.4706,1.448,1111122 
TCOON,ioos:station:TCOON:003:1,2017-10-12T07:18:00Z,26.8015,-97.4706,1.445,1111122 
TCOON,ioos:station:TCOON:003:1,2017-10-12T08:18:00Z,26.8015,-97.4706,1.444,1111122 
TCOON,ioos:station:TCOON:003:1,2017-10-12T09:18:00Z,26.8015,-97.4706,1.447,1111122 
TCOON,ioos:station:TCOON:003:1,2017-10-12T10:18:00Z,26.8015,-97.4706,1.453,1111122 
TCOON,ioos:station:TCOON:003:1,2017-10-12T11:18:00Z,26.8015,-97.4706,1.454,1111122 
TCOON,ioos:station:TCOON:003:1,2017-10-12T12:18:00Z,26.8015,-97.4706,1.43,1111122 
TCOON,ioos:station:TCOON:003:1,2017-10-12T13:18:00Z,26.8015,-97.4706,1.415,1111122 
TCOON,ioos:station:TCOON:003:1,2017-10-12T14:18:00Z,26.8015,-97.4706,1.455,1111122 
TCOON,ioos:station:TCOON:003:1,2017-10-12T15:18:00Z,26.8015,-97.4706,1.468,1111122 
TCOON,ioos:station:TCOON:003:1,2017-10-12T16:18:00Z,26.8015,-97.4706,1.462,1111122 
TCOON,ioos:station:TCOON:003:1,2017-10-12T17:18:00Z,26.8015,-97.4706,1.468,1111122 
TCOON,ioos:station:TCOON:003:1,2017-10-12T18:18:00Z,26.8015,-97.4706,1.462,1111122 
TCOON,ioos:station:TCOON:003:1,2017-10-12T19:18:00Z,26.8015,-97.4706,1.459,1111122 
TCOON,ioos:station:TCOON:003:1,2017-10-12T20:18:00Z,26.8015,-97.4706,1.474,1111122 
TCOON,ioos:station:TCOON:003:1,2017-10-12T21:18:00Z,26.8015,-97.4706,1.489,1111122 
TCOON,ioos:station:TCOON:003:1,2017-10-12T22:18:00Z,26.8015,-97.4706,1.494,1111122 
TCOON,ioos:station:TCOON:003:1,2017-10-12T23:18:00Z,26.8015,-97.4706,1.498,1111122 